Location: Newark
(43.0000°N, 1.6781°W)
Time: 19:10:16
(UTC+00:00)

Transit 2A Rocket - Pass Details

Date: 23 April 2021
Orbit: 594 x 908 km, 66.7° (Epoch: 05 May)

Event Time Altitude Azimuth Distance (km) Brightness Sun altitude
Rises 22:24:26 0° 336° (NNW) 2,882 9.2 -29.6°
Reaches altitude 10° 22:26:50 10° 346° (NNW) 2,002 8.0 -29.8°
Enters shadow 22:29:49 29° 23° (NNE) 1,181 6.2 -30.1°
